Rankin Inlet, Nunavut

6:26 PM CDT on April 24, 2017 (GMT -0500)
Rankin Inlet

Weather History for CYRT - May, 2013

Change the Weather History Date:

Thursday, May 23, 2013

  Actual Average Record
Temperature  
Mean Temperature 21 °F -  
Max Temperature 31 °F 40 °F 42 °F (2001)
Min Temperature 11 °F 28 °F 11 °F (2013)
Degree Days  
Heating Degree Days 44    
Moisture  
Dew Point 18 °F    
Average Humidity 82    
Maximum Humidity 93    
Minimum Humidity 69    
Precipitation  
Precipitation 0.00 in - - ()
Sea Level Pressure  
Sea Level Pressure 30.48 in    
Wind  
Wind Speed 8 mph ()    
Max Wind Speed 12 mph    
Max Gust Speed -    
Visibility 15.0 miles    
Events      
Averages and records for this station are not official NWS values.
T = Trace of Precipitation, MM = Missing Value Source: Averaged Metar Reports

Daily Weather History Graph

Daily Weather History Graph

Search for Another Location

Airport or City:

Trip Planner

Search our weather history database for the weather conditions in past years. The results will help you decide how hot, cold, wet, or windy it might be!

Date:

Astronomy

May. 23, 2013 Rise Set
Actual Time 3:44 AM CDT 10:27 PM CDT
Civil Twilight 1:54 AM CDT 12:24 AM CDT
Nautical Twilight Sun does not set Sun does not set
Astronomical Twilight Sun does not set Sun does not set
Moon 8:29 PM CDT (5/23) 3:16 AM CDT (5/23)
Length of Visible Light 22h 30m
Length of Day
18h 43m
Waxing Gibbous, 97% of the Moon is Illuminated
May 23
Waxing Gibbous
May 24
Full
May 31
Last Quarter
Jun 8
New
Jun 16
First Quarter

Hourly Weather History & Observations

Time (CDT) Temp. Windchill Dew Point Humidity Pressure Visibility Wind Dir Wind Speed Gust Speed Precip Events Conditions
12:00 AM 15.8 °F 3.4 °F 14.0 °F 93% 30.52 in 15.0 mi WNW 10.4 mph - N/A   Partly Cloudy
1:00 AM 15 °F - 12 °F 84% 30.50 in 15 mi NNW 11.5 mph - -   Clear
1:00 AM 15.8 °F 4.2 °F 12.2 °F 86% 30.50 in 15.0 mi NNW 9.2 mph - N/A   Partly Cloudy
2:00 AM 14.0 °F 0.5 °F 10.4 °F 86% 30.49 in 15.0 mi NNW 11.5 mph - N/A   Partly Cloudy
3:00 AM 10.4 °F -2.4 °F 8.6 °F 92% 30.48 in 15.0 mi NNW 9.2 mph - N/A   Scattered Clouds
4:00 AM 12.2 °F 2.9 °F 10.4 °F 92% 30.48 in 15.0 mi North 5.8 mph - N/A   Mostly Cloudy
5:00 AM 12.2 °F 1.7 °F 8.6 °F 85% 30.48 in 15.0 mi NNW 6.9 mph - N/A   Mostly Cloudy
6:00 AM 12.2 °F 0.7 °F 8.6 °F 85% 30.49 in 15.0 mi NNW 8.1 mph - N/A   Scattered Clouds
7:00 AM 15 °F - 11 °F 79% 30.49 in 15 mi North 9.2 mph - -   Clear
7:00 AM 14.0 °F 2.9 °F 10.4 °F 86% 30.49 in 15.0 mi North 8.1 mph - N/A   Mostly Cloudy
8:00 AM 17.6 °F 7.3 °F 14.0 °F 86% 30.49 in 15.0 mi NNE 8.1 mph - N/A   Mostly Cloudy
9:00 AM 21.2 °F 12.6 °F 15.8 °F 80% 30.48 in 15.0 mi North 6.9 mph - N/A   Partly Cloudy
10:00 AM 23.0 °F 14.7 °F 19.4 °F 86% 30.49 in 15.0 mi North 6.9 mph - N/A   Partly Cloudy
11:00 AM 26.6 °F 21.2 °F 21.2 °F 80% 30.48 in 15.0 mi North 4.6 mph - N/A   Partly Cloudy
12:00 PM 28.4 °F 22.2 °F 23.0 °F 80% 30.48 in 15.0 mi North 5.8 mph - N/A   Partly Cloudy
1:00 PM 30 °F - 24 °F 69% 30.48 in 15 mi North 5.8 mph - -  
1:00 PM 30.2 °F 24.3 °F 23.0 °F 75% 30.48 in 15.0 mi North 5.8 mph - N/A   Clear
2:00 PM 32.0 °F 25.6 °F 24.8 °F 75% 30.48 in 15.0 mi North 6.9 mph - N/A   Clear
3:00 PM 32.0 °F 23.6 °F 24.8 °F 75% 30.48 in 15.0 mi North 10.4 mph - N/A   Clear
4:00 PM 30.2 °F 21.3 °F 24.8 °F 80% 30.47 in 15.0 mi North 10.4 mph - N/A   Clear
5:00 PM 30.2 °F 21.3 °F 24.8 °F 80% 30.48 in 15.0 mi North 10.4 mph - N/A   Clear
6:00 PM 30.2 °F 20.8 °F 24.8 °F 80% 30.48 in 15.0 mi North 11.5 mph - N/A   Clear
7:00 PM 30 °F - 24 °F 72% 30.48 in 15 mi North 9.2 mph - -  
7:00 PM 30.2 °F 21.3 °F 24.8 °F 80% 30.48 in 15.0 mi North 10.4 mph - N/A   Clear
8:00 PM 30.2 °F 21.9 °F 24.8 °F 80% 30.48 in 15.0 mi North 9.2 mph - N/A   Clear
9:00 PM 26.6 °F 17.5 °F 23.0 °F 86% 30.48 in 15.0 mi NNW 9.2 mph - N/A   Partly Cloudy
10:00 PM 24.8 °F 16.1 °F 21.2 °F 86% 30.48 in 15.0 mi NNW 8.1 mph - N/A   Scattered Clouds
11:00 PM 24.8 °F 19.1 °F 21.2 °F 86% 30.48 in 15.0 mi North 4.6 mph - N/A   Scattered Clouds